"Pseudo-MPEC" for P20IoLI

Created 2018 Jul 13 10:19:26 UT using Find_Orb

Click here for an explanation of pseudo-MPECs

 
 Astrometry: 
     P20IoLI  C2018 07 111sAstrometryi!NrX+'3^pqfjCThFfP+rbdYZu,IP[A/a'6O?kE6F52
     P20IoLI  C2018 07 11m2[6f]X2$.rvJ\/_2;bv^K^e3^-2OTD0D0GwKdo!i+0NqL64t9:9F52
     P20IoLI  C2018 07 11/'x:MJ^7nI^Jd5Ie$Tv,BnXq-s0=Tb3ni^-,0?W0)FYnJgD0mRaYF52
     P20IoLI  C2018 07 11#I,4@`PSU@kRL?c\/redacted;oK3\oCPJu7)S`5AZuq4*kYleLeF52
     P20IoLI  C2018 07 12NbB]Wmp:9Dfi[oBv^=V44DrZXsCyErg/M4gQs1=bGg^w%!-mj,fJU63
     P20IoLI  C2018 07 12d9Palu3.=C\QI#\BiT_jAwASNnw44GRMQ:sM(CpOsA1pde/T``uaU63
     P20IoLI  C2018 07 129$/68C7kJB_CIf%F]wu0?-Z]Lil3PgNCE]Z8ZK]^nB[q.a=E^90WU63
     P20IoLI  C2018 07 12joLZa_d(3-NJA@^m#B;EX2-sO-1B=iB-see8oAy.+'vm/4O_[R[vU63
     P20IoLI  C2018 07 12Q9b928FD4=gWJ%F$h++dxoegD$Hw_y(yaAeSA/h^PycUY/YGn?2mU63
     P20IoLI KC2018 07 12hQZ2U\cn5lGwg3*/vLmM%V(^?,45'#I;iXQSLgytfau]Oid.yGm?K65
     P20IoLI KC2018 07 13=yS,q4/@)RRZ+$G*R?K9BFQKioYiL.Y%;eP)NJ2'lf'nK3gNEOCPK65

Station data:
(F52) Pan-STARRS 2, Haleakala  (N20.707384 W156.255910)  US/Hawaii.
(K65) Cesena  (N44.141649 E12.233900)  Italy.
(U63) Burnt Tree Hill Observatory, Cle Elum  (N47.162715 W120.805440)
   US/Washington.

Orbital elements:  P20IoLI
   Perihelion 2018 Aug 7.620252 +/- 22.1 TT = 14:53:09 (JD 2458338.120252)
Epoch 2018 Jul 13.0 TT = JDT 2458312.5   Earth MOID: 0.8322   AutoNEOCP
M 355.55817 +/- 4.8                 (J2000 ecliptic)
n   0.17337144 +/- 0.0452           Peri.   59.31237 +/- 12
a   3.18530487 +/- 0.553            Node   260.95287 +/- 3.1
e   0.4312532 +/- 0.076             Incl.   12.06417 +/- 0.9
P   5.68                   H 18.3   G  0.15   U 10.7  
q 1.81163176 +/- 0.0797    Q 4.55897799 +/- 1.14
From 11 observations 2018 July 11-13 (37.7 hr); mean residual 0".45
Residuals in arcseconds: 
180711 F52  .05+  .04+    180712 U63  .49-  1.0-    180712 U63  .52+  .62+    
180711 F52  .10+  .04-    180712 U63  .47-  .26-    180712 K65  .32+  .10+    
180711 F52  .04-  .04-    180712 U63  .02-  .59-    180713 K65  .25-  .11-    
180711 F52  .04-  .07+    180712 U63  .28+  1.2+    

Ephemerides (geocentric):
Date (UTC) HH   RA              Dec         delta   r     elong  mag " sig PA
---- -- -- --  -------------   -----------  ------ ------ -----  --- ---- ---
2018 07 13 10  21 32 55.524   +04 05 33.62  .92272 1.8239 140.2 20.4  1.0 115
2018 07 13 11  21 32 55.277   +04 06 09.76  .92250 1.8239 140.3 20.4  1.1 112
2018 07 13 12  21 32 55.027   +04 06 45.87  .92228 1.8238 140.3 20.4  1.1 109
2018 07 13 13  21 32 54.773   +04 07 21.95  .92206 1.8238 140.3 20.4  1.2 107
2018 07 13 14  21 32 54.517   +04 07 58.02  .92184 1.8238 140.3 20.4  1.3 105
2018 07 13 15  21 32 54.258   +04 08 34.06  .92162 1.8237 140.4 20.4  1.4 103
2018 07 13 16  21 32 53.996   +04 09 10.08  .92141 1.8237 140.4 20.4  1.5 101
2018 07 13 17  21 32 53.730   +04 09 46.08  .92119 1.8236 140.4 20.4  1.6  99
2018 07 13 18  21 32 53.462   +04 10 22.05  .92097 1.8236 140.5 20.4  1.7  98
2018 07 13 19  21 32 53.190   +04 10 58.01  .92075 1.8236 140.5 20.4  1.8  97
2018 07 13 20  21 32 52.916   +04 11 33.94  .92053 1.8235 140.5 20.4  1.9  95
2018 07 13 21  21 32 52.638   +04 12 09.84  .92032 1.8235 140.5 20.4  2.0  94
2018 07 13 22  21 32 52.357   +04 12 45.73  .92010 1.8234 140.6 20.4  2.1  93
2018 07 13 23  21 32 52.074   +04 13 21.59  .91988 1.8234 140.6 20.4  2.2  92
2018 07 14 00  21 32 51.787   +04 13 57.43  .91967 1.8234 140.6 20.4  2.3  91
2018 07 14 01  21 32 51.497   +04 14 33.24  .91945 1.8233 140.7 20.4  2.5  90
2018 07 14 02  21 32 51.204   +04 15 09.03  .91923 1.8233 140.7 20.4  2.6  89
2018 07 14 03  21 32 50.908   +04 15 44.80  .91902 1.8232 140.7 20.4  2.7  88
2018 07 14 04  21 32 50.610   +04 16 20.55  .91880 1.8232 140.7 20.4  2.8  88
2018 07 14 05  21 32 50.308   +04 16 56.27  .91859 1.8232 140.8 20.4  3.0  87
2018 07 14 06  21 32 50.003   +04 17 31.97  .91837 1.8231 140.8 20.4  3.1  86
2018 07 14 07  21 32 49.695   +04 18 07.65  .91816 1.8231 140.8 20.4  3.3  86
2018 07 14 08  21 32 49.384   +04 18 43.30  .91794 1.8230 140.9 20.4  3.4  85
2018 07 14 09  21 32 49.070   +04 19 18.93  .91773 1.8230 140.9 20.4  3.6  85
2018 07 14 10  21 32 48.753   +04 19 54.53  .91752 1.8230 140.9 20.4  3.7  84
2018 07 14 11  21 32 48.433   +04 20 30.12  .91730 1.8229 140.9 20.4  3.9  84
2018 07 14 12  21 32 48.110   +04 21 05.68  .91709 1.8229 141.0 20.4  4.0  83
2018 07 14 13  21 32 47.784   +04 21 41.21  .91688 1.8228 141.0 20.4  4.2  83
2018 07 14 14  21 32 47.455   +04 22 16.73  .91666 1.8228 141.0 20.4  4.4  83
2018 07 14 15  21 32 47.123   +04 22 52.21  .91645 1.8228 141.1 20.4  4.5  82
2018 07 14 16  21 32 46.787   +04 23 27.68  .91624 1.8227 141.1 20.4  4.7  82
2018 07 14 17  21 32 46.449   +04 24 03.12  .91603 1.8227 141.1 20.4  4.9  81
2018 07 14 18  21 32 46.108   +04 24 38.54  .91582 1.8227 141.2 20.4  5.1  81
2018 07 14 19  21 32 45.764   +04 25 13.93  .91560 1.8226 141.2 20.4  5.2  81
2018 07 14 20  21 32 45.417   +04 25 49.30  .91539 1.8226 141.2 20.4  5.4  80
2018 07 14 21  21 32 45.067   +04 26 24.65  .91518 1.8225 141.2 20.4  5.6  80
2018 07 14 22  21 32 44.714   +04 26 59.97  .91497 1.8225 141.3 20.4  5.8  80
2018 07 14 23  21 32 44.358   +04 27 35.27  .91476 1.8225 141.3 20.4  6.0  80
2018 07 15 00  21 32 43.999   +04 28 10.55  .91455 1.8224 141.3 20.4  6.2  79
2018 07 15 01  21 32 43.637   +04 28 45.80  .91434 1.8224 141.4 20.4  6.4  79
2018 07 15 02  21 32 43.272   +04 29 21.03  .91413 1.8223 141.4 20.4  6.6  79
2018 07 15 03  21 32 42.904   +04 29 56.23  .91392 1.8223 141.4 20.4  6.8  79
2018 07 15 04  21 32 42.533   +04 30 31.41  .91371 1.8223 141.4 20.4  7.0  78
2018 07 15 05  21 32 42.159   +04 31 06.56  .91351 1.8222 141.5 20.4  7.2  78
2018 07 15 06  21 32 41.782   +04 31 41.69  .91330 1.8222 141.5 20.4  7.4  78
2018 07 15 07  21 32 41.402   +04 32 16.80  .91309 1.8222 141.5 20.4  7.7  78
2018 07 15 08  21 32 41.019   +04 32 51.88  .91288 1.8221 141.6 20.4  7.9  78
2018 07 15 09  21 32 40.634   +04 33 26.94  .91267 1.8221 141.6 20.4  8.1  77